Regional Weather Roundup
Issued by NWS

Home | Current Version | Previous Version | Text Only | Print | Product List | Glossary On
Versions: 1 2 3 4 5 6 7 8 9 10 11 12 13 14 15 16 17 18 19 20 21 22 23 24 25 26 27 28 29 30 31 32 33 34 35 36 37 38 39 40 41 42 43 44 45 46 47 48 49 50
000
ASUS43 KLOT 270500
RWRIL

ILLINOIS REGIONAL WEATHER ROUNDUP
NATIONAL WEATHER SERVICE CHICAGO/ROMEOVILLE IL
1100 PM CST THU FEB 26 2015

NOTE: "FAIR" INDICATES FEW OR NO CLOUDS BELOW 12,000 FEET WITH NO
SIGNIFICANT WEATHER AND/OR OBSTRUCTIONS TO VISIBILITY.

* THESE STATIONS ARE NOT UNDER NWS QUALITY CONTROL. THEY ALSO MAY NOT
  REPORT WEATHER SUCH AS PRECIPITATION OR FOG.

ILZ001-002-007-009-015-016-024-270600-
NORTHWEST ILLINOIS

CITY           SKY/WX    TMP DP  RH WIND       PRES   REMARKS
MOLINE         CLEAR      0  -9  65 W7        30.51R WCI -13
STERLING*      CLEAR     -2  -9  71 NW8       30.46S WCI -17
$$

ILZ003-004-008-010-011-017-018-270600-
NORTH CENTRAL ILLINOIS

CITY           SKY/WX    TMP DP  RH WIND       PRES   REMARKS
ROCKFORD       CLEAR     -3 -10  72 CALM      30.46R
FREEPORT*      CLEAR     -2 -10  69 W6        30.46S WCI -14
DE KALB*       FAIR      -3  -9  75 W6        30.42S WCI -15
$$

ILZ005-006-012>014-019>023-270600-
NORTHEAST ILLINOIS

CITY           SKY/WX    TMP DP  RH WIND       PRES   REMARKS
CHICAGO-OHARE  PTCLDY     1  -8  66 NW9       30.41S WCI -14
CHICAGO-MIDWAY PTCLDY     8  -5  55 NW8       30.43R WCI  -4
AURORA         CLEAR     -8 -15  71 NW5       30.44S WCI -19
LANSING*       CLEAR      6  -4  62 NW6       30.42S WCI  -4
WAUKEGAN       CLEAR     -1  -8  72 W5        30.41S WCI -11
DUPAGE AIRPORT CLEAR      1  -8  66 NW7       30.42R WCI -12
WHEELING       CLEAR      3  -8  60 NW6       30.44R WCI  -8
NORTHERLY ISL    N/A     12  -1  56 NW5         N/A  WCI   4
$$

LMZ740>746-270600-
SOUTHERN LAKE MICHIGAN

STATION/POSITION SKY/WX   TEMP    WIND        PRES    VSBY  WAVE
                          AIR SEA DIR/SP/G                  HT/PER
                          (F)     (DEG/KT/KT) (MB)    (MI)  (FT/S)
WAUKEGAN HARBOR             7     320/  5/ 12   N/A
HARRISON CRIB              11     310/ 15/ 18   N/A
BURNHAM HARBOR             12     310/  6/ 12   N/A
CALUMET HARBOR             10     280/  7/  9 1028.6R
MICHIGAN CITY              12     290/  5/  5   N/A
$$

ILZ025>027-034>036-040-047-049-050-058-095>099-270600-
WEST-CENTRAL ILLINOIS

CITY           SKY/WX    TMP DP  RH WIND       PRES   REMARKS
QUINCY         CLEAR     -1  -9  68 NW7       30.53R WCI -14
MACOMB*        CLEAR     -3  -8  78 NW10      30.54R WCI -20
$$

ILZ028>032-037-038-041>044-048-051>054-059>061-270600-
CENTRAL ILLINOIS

CITY           SKY/WX    TMP DP  RH WIND       PRES   REMARKS
DECATUR        CLOUDY    12   5  73 NW13      30.46R WCI  -3
PEORIA         CLEAR      4  -5  66 NW7       30.49S WCI  -8
SPRINGFIELD    NOT AVBL
TAYLORVILLE    NOT AVBL
$$

ILZ033-039-045-046-055>057-062-063-270600-
EAST-CENTRAL ILLINOIS

CITY           SKY/WX    TMP DP  RH WIND       PRES   REMARKS
CHAMPAIGN      CLOUDY    10   3  73 NW12      30.43S WCI  -5
$$

ILZ079-100>102-270600-
SOUTHWEST ILLINOIS

CITY           SKY/WX    TMP DP  RH WIND       PRES   REMARKS
ALTON          CLEAR      9  -3  58 NW8       30.52R WCI  -3
CAHOKIA*       CLEAR     12   1  61 N17       30.53R WCI  -5
$$

ILZ064>066-069>071-074>076-080>082-084>086-088>090-092>094-270600-
SOUTH-CENTRAL ILLINOIS

CITY           SKY/WX    TMP DP  RH WIND       PRES   REMARKS
CARBONDALE     NOT AVBL
MT. VERNON     CLOUDY    16   9  73 N7        30.46S WCI   6
$$

ILZ067-068-072-073-078-083-087-091-270600-
SOUTHEAST ILLINOIS

CITY           SKY/WX    TMP DP  RH WIND       PRES   REMARKS
LAWRENCEVILLE  MOCLDY    13   5  70 N9        30.45R WCI   1
$$

ABBREVIATIONS USED IN REMARKS
   TC - TEMPERATURE IN CELSIUS
  WCI - WIND CHILL INDEX
   HX - HEAT INDEX
  VSB - VISIBILITY
$$




USA.gov is the U.S. government's official web portal to all federal, state and local government web resources and services.